AirNav   Pilot Hours Calculator
 
 1430 users online  

58NH Wallace Heliport
Danville, New Hampshire, USA

GOING TO DANVILLE?


FAA INFORMATION EFFECTIVE 31 DECEMBER 2020

Location

FAA Identifier: 58NH
Lat/Long: 42-57-19.2000N 071-05-36.0000W
42-57.320000N 071-05.600000W
42.9553333,-71.0933333
(estimated)
Elevation: 135 ft. / 41 m (estimated)
From city: 3 miles NNE of DANVILLE, NH
Time zone: UTC -5 (UTC -4 during Daylight Saving Time)
Zip code: 03044

Heliport Operations

Heliport use: Private use. Permission required prior to landing
Activation date: 12/2015
Control tower: no
ARTCC: BOSTON CENTER
FSS: BANGOR FLIGHT SERVICE STATION
Attendance: UNATNDD
Wind indicator: yes
Segmented circle: no

Heliport Communications

WX ASOS at LWM (14 nm S): PHONE 978-687-8017
WX ASOS at MHT (15 nm W): 119.55 (603-621-1766)

Nearby radio navigation aids

VOR radial/distance  VOR name  Freq  Var
LWMr015/12.9LAWRENCE VOR/DME112.5015W
MHTr082/13.2MANCHESTER VOR/DME114.4015W
PSMr252/13.8PEASE VOR/DME116.5016W
CONr142/26.4CONCORD VOR/DME112.9015W
ENEr234/35.2KENNEBUNK VOR/DME117.1017W
BOSr009/36.2BOSTON VOR/DME112.7016W

 
NDB name  Hdg/Dist  Freq  Var  ID
ROLLINS232/19.726016WESG . ... --.

Heliport Services

Runway Information

Helipad H1

Dimensions: 33 x 33 ft. / 10 x 10 m
Surface: turf, in good condition
Traffic pattern: leftleft

Heliport Ownership and Management from official FAA records

Ownership: Privately-owned
Owner: JOHN SCOTT WALLACE
34 WYMANS LANDING
DANVILLE, NH 03819
Phone 603-702-1054
Manager: JOHN SCOTT WALLACE
34 WYMANS LANDING
DANVILLE, NH 03819
Phone 603-702-1054

Additional Remarks

PPR.
FOR CD CTC BOSTON APCH AT 603-594-5551.

Instrument Procedures

There are no published instrument procedures at 58NH.

Some nearby airports with instrument procedures:

KPSM - Portsmouth International Airport at Pease (14 nm NE)
KLWM - Lawrence Municipal Airport (14 nm S)
KMHT - Manchester Airport (15 nm W)
3B4 - Littlebrook Air Park (18 nm NE)
KDAW - Skyhaven Airport (21 nm N)
 
Loc | Ops | Rwys | IFR | FBO | Links
Com | Nav | Svcs | Stats | Notes
Aerial photo
No photo
 
Airport distance calculator
Flying to Wallace Heliport? Find the distance to fly.

From to 58NH

Sunrise and sunset
Times for 15-Jan-2021
 Local
(UTC-5)
 Zulu
(UTC)
Morning civil twilight06:4211:42
Sunrise07:1412:14
Sunset16:3421:34
Evening civil twilight17:0522:05

Current date and time
Zulu (UTC)  15-Jan-2021 19:16:29
Local (UTC-5)  15-Jan-2021 14:16:29
 
METAR
KPSM 
14nm NE 
151856Z 08009KT 10SM FEW045 BKN250 05/M02 A3006 RMK AO2A SLP183 T00451022 RVRNO $
KLWM 
14nm S 
151854Z 09006KT 10SM SCT032 06/M02 A3008 RMK AO2 SLP188 T00561017
KMHT 
15nm W 
151853Z 13009KT 10SM FEW030 BKN250 06/M04 A3004 RMK AO2 SLP189 T00611044
KDAW 
21nm N 
151851Z AUTO 12008KT 10SM CLR 05/M05 A3006 RMK AO2 SLP178 T00501050
KASH 
22nm SW 
151856Z 08009KT 10SM SCT037 06/M03 A3005 RMK AO2 SLP182 T00611033
KCON 
23nm NW 
151851Z AUTO VRB04KT 10SM CLR 06/M06 A3005 RMK AO2 SLP178 T00561056
KBVY 
24nm S 
151853Z 09004KT 10SM BKN036 06/M01 A3006 RMK AO2 SLP178 T00561011 PNO
TAF
KPSM 
14nm NE 
151742Z 1518/1618 07006KT P6SM SCT045 BKN250 FM152300 08006KT P6SM BKN025 FM160800 07011G20KT 4SM -RA BR OVC012 FM161200 08015G25KT 3SM RA BR OVC003
KMHT 
15nm W 
151742Z 1518/1618 11005KT P6SM SCT045 BKN200 FM160200 07007KT P6SM OVC025 FM160800 06010KT 3SM -SNRA BR OVC012 FM161200 06014G22KT 3SM RA BR OVC005
NOTAMs
Click for the latest NOTAMs
NOTAMs are issued by the DoD/FAA and will open in a separate window not controlled by AirNav.

 

 
 

Would you like to see your business listed on this page?

 If your business provides an interesting product or service to pilots, flight crews, aircraft, or users of the Wallace Heliport, you should consider listing it here.  To start the listing process, click on the button below
 
Add a business
 

Other Pages about Wallace Heliport

Update a link
 
Copyright © AirNav, LLC. All rights reserved. Privacy Policy  Contact